Plato, MN

5:54 AM CDT on July 25, 2016 (GMT -0500)
Glencoe Municipal

Weather History for KGYL - March, 2014

Change the Weather History Date:

Thursday, March 20, 2014

  Actual Average (KHCD) Record (KHCD)
Temperature  
Mean Temperature 36 °F -  
Max Temperature 45 °F 41 °F 63 °F (1991)
Min Temperature 26 °F 25 °F -13 °F (1965)
Degree Days  
Heating Degree Days 30    
Moisture  
Dew Point 28 °F    
Average Humidity 77    
Maximum Humidity 91    
Minimum Humidity 52    
Precipitation  
Precipitation 0.00 in - - ()
Sea Level Pressure  
Sea Level Pressure 29.95 in    
Wind  
Wind Speed 4 mph (South)    
Max Wind Speed 10 mph    
Max Gust Speed -    
Visibility 8 miles    
Events      
Averages and records for this station are not official NWS values.
T = Trace of Precipitation, MM = Missing Value Source: NWS Daily Summary

Daily Weather History Graph

Daily Weather History Graph

Search for Another Location

Airport or City:

Trip Planner

Search our weather history database for the weather conditions in past years. The results will help you decide how hot, cold, wet, or windy it might be!

Date:

Astronomy

Mar. 20, 2014 Rise Set
Actual Time 7:19 AM CDT 7:28 PM CDT
Civil Twilight 6:50 AM CDT 7:58 PM CDT
Nautical Twilight 6:16 AM CDT 8:32 PM CDT
Astronomical Twilight 5:41 AM CDT 9:07 PM CDT
Moon No Moon Rise 9:16 AM CDT (3/20)
Length of Visible Light 13h 07m
Length of Day
12h 09m
Waning Gibbous, 84% of the Moon is Illuminated
Mar 20
Waning Gibbous
Mar 23
Last Quarter
Mar 30
New
Apr 7
First Quarter
Apr 15
Full

Hourly Weather History & Observations

Time (CDT) Temp. Windchill Dew Point Humidity Pressure Visibility Wind Dir Wind Speed Gust Speed Precip Events Conditions
12:13 AM 31.1 °F 27.7 °F 27.7 °F 87% 29.97 in 7.0 mi SW 3.5 mph - N/A   Clear
12:32 AM 30.9 °F - 27.5 °F 87% 29.98 in 7.0 mi Calm Calm - N/A   Clear
12:52 AM 30.4 °F 25.6 °F 27.5 °F 89% 29.98 in 7.0 mi SW 4.6 mph - N/A   Clear
1:13 AM 30.6 °F 27.1 °F 27.5 °F 88% 29.98 in 7.0 mi WSW 3.5 mph - N/A   Clear
1:32 AM 30.2 °F 26.7 °F 27.3 °F 89% 29.98 in 5.0 mi WSW 3.5 mph - N/A   Clear
1:52 AM 29.7 °F 26.1 °F 26.8 °F 89% 29.98 in 4.0 mi WSW 3.5 mph - N/A   Clear
2:12 AM 29.5 °F 25.9 °F 26.8 °F 90% 29.98 in 5.0 mi WSW 3.5 mph - N/A   Clear
2:32 AM 29.3 °F - 26.6 °F 90% 29.98 in 5.0 mi Calm Calm - N/A   Clear
2:52 AM 28.9 °F - 26.2 °F 90% 29.98 in 4.0 mi Calm Calm - N/A   Clear
3:13 AM 28.9 °F 23.9 °F 26.4 °F 90% 29.98 in 5.0 mi SW 4.6 mph - N/A   Clear
3:32 AM 29.1 °F 23.0 °F 26.4 °F 90% 29.98 in 7.0 mi SW 5.8 mph - N/A   Clear
3:53 AM 29.3 °F 25.6 °F 26.6 °F 90% 29.98 in 7.0 mi SW 3.5 mph - N/A   Clear
4:13 AM 29.3 °F 25.6 °F 26.4 °F 89% 29.97 in 10.0 mi SW 3.5 mph - N/A   Clear
4:32 AM 29.1 °F - 26.2 °F 89% 29.98 in 7.0 mi Calm Calm - N/A   Clear
4:52 AM 28.4 °F 24.6 °F 25.3 °F 88% 29.98 in 7.0 mi SSW 3.5 mph - N/A   Clear
5:13 AM 28.0 °F 24.2 °F 25.3 °F 90% 29.98 in 7.0 mi SSW 3.5 mph - N/A   Clear
5:33 AM 27.0 °F 23.0 °F 24.3 °F 90% 29.98 in 7.0 mi SSW 3.5 mph - N/A   Clear
5:52 AM 28.0 °F 24.2 °F 25.3 °F 90% 29.98 in 7.0 mi SSW 3.5 mph - N/A   Clear
6:13 AM 26.6 °F 22.6 °F 23.9 °F 90% 29.98 in 5.0 mi SSW 3.5 mph - N/A   Clear
6:32 AM 26.8 °F 21.4 °F 24.1 °F 90% 29.98 in 5.0 mi SSW 4.6 mph - N/A   Clear
6:53 AM 28.2 °F 24.4 °F 25.5 °F 90% 29.98 in 7.0 mi SSW 3.5 mph - N/A   Clear
7:13 AM 27.5 °F 22.2 °F 24.8 °F 90% 29.98 in 7.0 mi SSW 4.6 mph - N/A   Clear
7:33 AM 27.0 °F 23.0 °F 24.3 °F 90% 29.98 in 5.0 mi SSW 3.5 mph - N/A   Clear
7:53 AM 27.1 °F 23.2 °F 24.6 °F 90% 29.99 in 4.0 mi SSW 3.5 mph - N/A   Clear
8:12 AM 28.2 °F 23.1 °F 25.7 °F 90% 29.99 in 4.0 mi South 4.6 mph - N/A   Clear
8:33 AM 29.1 °F - 26.4 °F 90% 30.00 in 5.0 mi Calm Calm - N/A   Clear
8:53 AM 30.2 °F 26.7 °F 27.5 °F 90% 29.99 in 5.0 mi SSW 3.5 mph - N/A   Clear
9:12 AM 31.3 °F - 28.6 °F 90% 29.99 in 5.0 mi Calm Calm - N/A   Clear
9:33 AM 32.0 °F - 29.7 °F 91% 29.99 in 5.0 mi Calm Calm - N/A   Clear
9:53 AM 32.9 °F 29.8 °F 30.2 °F 90% 29.99 in 7.0 mi South 3.5 mph - N/A   Clear
10:12 AM 34.7 °F 31.8 °F 31.1 °F 87% 30.00 in 10.0 mi South 3.5 mph - N/A   Clear
10:33 AM 34.7 °F 31.8 °F 30.9 °F 86% 29.99 in 7.0 mi SSW 3.5 mph - N/A   Clear
10:53 AM 35.6 °F 31.7 °F 31.3 °F 84% 29.99 in 7.0 mi South 4.6 mph - N/A   Clear
11:12 AM 36.9 °F 33.1 °F 31.6 °F 81% 29.99 in 10.0 mi South 4.6 mph - N/A   Clear
11:32 AM 37.0 °F 31.6 °F 31.1 °F 79% 29.99 in 10.0 mi South 6.9 mph - N/A   Clear
11:53 AM 38.3 °F 33.9 °F 31.6 °F 77% 29.99 in 10.0 mi SSW 5.8 mph - N/A   Clear
12:13 PM 38.5 °F 33.4 °F 31.5 °F 76% 29.98 in 10.0 mi SSW 6.9 mph - N/A   Clear
12:33 PM 39.2 °F 34.2 °F 31.3 °F 73% 29.98 in 10.0 mi SSW 6.9 mph - N/A   Clear
12:53 PM 40.1 °F 36.9 °F 31.3 °F 71% 29.97 in 10.0 mi South 4.6 mph - N/A   Clear
1:12 PM 40.5 °F 36.5 °F 30.0 °F 66% 29.97 in 10.0 mi South 5.8 mph - N/A   Clear
1:33 PM 41.4 °F 36.8 °F 30.4 °F 65% 29.96 in 10.0 mi South 6.9 mph - N/A   Clear
1:53 PM 41.9 °F 37.5 °F 30.0 °F 63% 29.95 in 10.0 mi SE 6.9 mph - N/A   Clear
2:13 PM 43.7 °F 40.3 °F 28.6 °F 55% 29.95 in 10.0 mi SE 5.8 mph - N/A   Clear
2:33 PM 44.4 °F 40.5 °F 28.4 °F 53% 29.94 in 10.0 mi SSE 6.9 mph - N/A   Clear
2:52 PM 44.4 °F 40.5 °F 27.9 °F 52% 29.93 in 10.0 mi SSE 6.9 mph - N/A   Clear
3:13 PM 44.6 °F 40.7 °F 28.0 °F 52% 29.93 in 10.0 mi SSE 6.9 mph - N/A   Clear
3:33 PM 43.3 °F 39.9 °F 29.1 °F 57% 29.92 in 10.0 mi SSE 5.8 mph - N/A   Clear
3:52 PM 44.8 °F 42.4 °F 30.2 °F 57% 29.92 in 10.0 mi South 4.6 mph - N/A   Clear
4:13 PM 45.0 °F 42.6 °F 29.7 °F 55% 29.92 in 10.0 mi SSE 4.6 mph - N/A   Clear
4:33 PM 44.4 °F 40.5 °F 29.1 °F 55% 29.92 in 10.0 mi South 6.9 mph - N/A   Clear
4:53 PM 45.1 °F 41.4 °F 29.5 °F 54% 29.91 in 10.0 mi SSE 6.9 mph - N/A   Clear
5:12 PM 45.0 °F 42.6 °F 28.4 °F 52% 29.91 in 10.0 mi SSE 4.6 mph - N/A   Clear
5:33 PM 44.8 °F 41.6 °F 30.0 °F 56% 29.91 in 10.0 mi South 5.8 mph - N/A   Scattered Clouds
5:53 PM 44.6 °F 41.4 °F 28.2 °F 53% 29.91 in 10.0 mi SSE 5.8 mph - N/A   Scattered Clouds
6:13 PM 44.6 °F 42.2 °F 29.1 °F 55% 29.92 in 10.0 mi South 4.6 mph - N/A   Clear
6:32 PM 43.3 °F 40.7 °F 29.3 °F 58% 29.92 in 10.0 mi SSE 4.6 mph - N/A   Mostly Cloudy
6:53 PM 43.9 °F 41.3 °F 28.6 °F 55% 29.91 in 10.0 mi SE 4.6 mph - N/A   Overcast
7:13 PM 42.1 °F 39.2 °F 30.2 °F 63% 29.91 in 10.0 mi SE 4.6 mph - N/A   Scattered Clouds
7:32 PM 40.3 °F 37.1 °F 30.4 °F 68% 29.90 in 10.0 mi SE 4.6 mph - N/A   Clear
7:53 PM 37.8 °F 33.3 °F 30.2 °F 74% 29.90 in 10.0 mi ESE 5.8 mph - N/A   Clear
8:12 PM 36.5 °F 31.8 °F 29.3 °F 75% 29.90 in 10.0 mi East 5.8 mph - N/A   Clear
8:33 PM 35.6 °F 29.2 °F 29.3 °F 78% 29.91 in 10.0 mi ESE 8.1 mph - N/A   Clear
8:52 PM 34.9 °F 29.0 °F 29.7 °F 81% 29.91 in 10.0 mi ESE 6.9 mph - N/A   Clear
9:12 PM 34.7 °F 28.1 °F 30.2 °F 84% 29.91 in 10.0 mi ESE 8.1 mph - N/A   Clear
9:32 PM 36.1 °F 29.9 °F 30.6 °F 80% 29.90 in 10.0 mi ESE 8.1 mph - N/A   Clear
9:53 PM 35.8 °F 29.4 °F 29.8 °F 79% 29.90 in 10.0 mi ESE 8.1 mph - N/A   Clear
10:12 PM 35.6 °F 28.6 °F 30.0 °F 80% 29.89 in 10.0 mi ESE 9.2 mph - N/A   Clear
10:31 PM 36.1 °F 29.9 °F 30.2 °F 79% 29.88 in 10.0 mi SE 8.1 mph - N/A   Clear
10:52 PM 35.8 °F 28.3 °F 30.2 °F 80% 29.87 in 10.0 mi SE 10.4 mph - N/A   Clear
11:12 PM 35.2 °F 28.1 °F 30.2 °F 82% 29.86 in 10.0 mi SE 9.2 mph - N/A   Clear
11:33 PM 35.1 °F 27.9 °F 29.8 °F 81% 29.86 in 10.0 mi SE 9.2 mph - N/A   Clear
11:49 PM 35.2 °F 28.1 °F 29.3 °F 79% 29.85 in 10.0 mi SE 9.2 mph - N/A   Clear